Regional Weather Roundup
Issued by NWS

Home | Current Version | Previous Version | Graphics & Text | Print | Product List | Glossary On
Versions: 1 2 3 4 5 6 7 8 9 10 11 12 13 14 15 16 17 18 19 20 21 22 23 24 25 26 27 28 29 30 31 32 33 34 35 36 37 38 39 40 41 42 43 44 45 46 47 48 49 50
000
ASUS43 KBIS 192310
RWRND

NORTH DAKOTA REGIONAL WEATHER ROUNDUP
NATIONAL WEATHER SERVICE BISMARCK ND
500 PM CST THU JAN 19 2017

NOTE: "FAIR" INDICATES FEW OR NO CLOUDS BELOW 12,000 FEET WITH NO
SIGNIFICANT WEATHER AND/OR OBSTRUCTIONS TO VISIBILITY.


NDZ001>003-009>011-017-200000-
NORTHWEST NORTH DAKOTA

CITY           SKY/WX    TMP DP  RH WIND       PRES   REMARKS
WILLISTON      FAIR      29  21  72 CALM      29.44R
MINOT          FAIR      34  28  79 SE6       29.42F
MINOT AFB      CLOUDY    32  29  88 CALM      29.42S
$$

NDZ018>021-031>035-040>046-200000-
SOUTHWEST NORTH DAKOTA

CITY           SKY/WX    TMP DP  RH WIND       PRES   REMARKS
BISMARCK       FAIR      22  17  81 E5        29.49R WCI  16
DICKINSON      FAIR      31  24  75 W7        29.40F
GARRISON         N/A     26  20  77 CALM      29.44R
HETTINGER ARPT CLOUDY    27  22  81 CALM      29.45S
$$

NDZ004>008-012>016-024-026-027-054-200000-
NORTHEAST NORTH DAKOTA

CITY           SKY/WX    TMP DP  RH WIND       PRES   REMARKS
GRAND FORKS    FOG       33  30  88 S13       29.56S VSB 3/4
GRND FRKS AFB  CLOUDY    32  30  93 S17       29.55S FOG
DEVILS LAKE    FAIR      31  24  75 SE5       29.49S
$$

NDZ022-023-025-028>030-036>039-047>053-200000-
SOUTHEAST NORTH DAKOTA

CITY           SKY/WX    TMP DP  RH WIND       PRES   REMARKS
FARGO          CLEAR     38  34  85 S17G24    29.59R
JAMESTOWN      FOG       26  26 100 S16       29.51S VSB 1/2 WCI  14
$$





USA.gov is the U.S. government's official web portal to all federal, state and local government web resources and services.